ONEWEB-0291, 49081

Orbit data source: Space-Track

ONEWEB-0291, 49081 is a payload satellite owned by One Web (NAA) (UK) in LEO that was launched on Sat, 21 Aug 2021 UTC via a SOYUZ-2-1B launch vehicle from the Tyuratam Missile And Space Complex (TTMTR). Payload-class satellites include a variety of spacecraft equipped with specific instruments for various scientific and technological missions. These include communications satellites like Starlink; space stations such as the ISS; scientific satellites like the Hubble; Earth observation satellites from companies like Planet Labs, Umbra, and HawkEye 360; GPS; miniature CubeSats for education and research; and military/defense satellites.

Loading next visibility...
Identifier
49081, 2021-075G
Orbit
LEO
Country
Flag of UKUK
Related business
Manufacturer
One Web
Mission
Operational Commercial Communications
Bus & Motor
ARROW, Unknown motor
Mass
148 kg wet, ~140 kg dry
Launch date (UTC)
2021-08-21 (5 years ago)
Launch vehicle
SOYUZ-2-1B
Launch site
Tyuratam Missile And Space Complex (TTMTR)
Object type
Payload
Rocket body
Debris
Shape & HBR
Trap Box + 2 Pan, 6.7 m
Radar Cross Section
3.464 m², Large (>1 m²)

Expand to show TLE details & history
Last TLE update: 9 hours ago

TLE from 9 hours ago
0 ONEWEB-0291
1 49081U 21075G   26130.19520512 -.00000348  00000-0 -92948-3 0  9996
2 49081  87.9172  13.4125 0001494  91.4813 268.6490 13.17645953228605
Epoch: 2026-05-10T04:41Z
TLE epoch observation values (Epoch: 2026-05-10T04:41:05.722Z)
Latitude
0.00002°
Longitude
75.13689°
Altitude
1,196.65 km
Speed
7.255 km/s
True Right ascension
00h 53m 39s
True Declination
0° 00' 00"
Sunlit
Object was in daylight at epoch
Visualization orbit readout
Latitude
Unknown
Longitude
Unknown
Altitude
Unknown
Speed
Unknown
Apparent Right ascension
Unknown
Apparent Declination
Unknown
Sunlit
N/A
Visualization observer readout
Local Sidereal Time
22:05:23
Azimuth
Unknown
Elevation
Unknown
Doppler factor
Unknown
Orbital elements
Apogee altitude
1,191.964 km
Perigee altitude
1,189.703 km
Semi-major axis
7,568.971 km
Eccentricity
0.00015
Inclination
87.9172°
RAAN
13.4125°
Arg. of periapsis
91.4813°
True anomaly
268.63188°
Mean anomaly
268.649°
Eccentric anomaly
268.64044°
Mean motion
3.29601 °/min
Orbital period
109.22 mins
BSTAR
-0.00092948
Loading maneuver chart data...
Computing Atmospheric mass density...
Loading historical data...
Loading historical data...
Loading historical data...
Loading historical data...
Loading historical data...
Loading historical data...
Loading historical data...

Documentation

Showing up to 5 results
|